Temperature
17 17 17 17 17 17 17 17 17 17 17 17 17 17 16 16 16 16 16 15 15 15 15 15 15 15 14 14 14 14 14 14 14 14 14 14 14 14
16 17 17 17 17 17 17 17 17 17 17 17 17 17 16 16 16 16 16 16 15 15 15 15 15 15 14 14 14 14 14 14 14 14 14 14 14 13
16 16 16 16 16 16 16 17 16 17 17 17 16 16 16 16 16 16 16 15 15 15 15 15 15 15 15 14 14 14 14 14 14 14 14 13 13 13
16 16 16 16 16 16 16 16 16 16 16 16 16 16 16 16 16 16 16 15 15 15 15 15 15 15 14 14 14 14 14 14 14 14 14 13 13 13
16 16 16 16 16 16 16 16 16 16 16 16 16 16 16 16 16 15 15 15 15 15 15 15 15 14 14 14 14 14 14 14 14 14 13 13 13 13
16 16 16 16 16 16 16 16 16 16 16 16 16 16 16 16 15 15 15 15 15 15 15 15 14 14 14 14 14 14 14 14 14 13 13 13 13 13
16 16 16 16 16 16 16 16 15 15 16 16 15 15 15 15 15 15 15 15 15 15 15 15 14 14 14 14 14 14 14 13 13 13 13 13 13 13
16 16 16 15 15 15 15 15 15 15 15 15 15 15 15 15 15 15 15 15 15 15 14 14 14 14 14 14 14 13 13 13 13 13 13 12 12 12
16 16 16 16 15 15 15 15 15 15 15 15 15 15 15 15 15 14 14 14 14 14 14 14 14 14 14 13 13 13 13 12 12 12 12 12 12 12
16 16 15 15 15 15 15 15 15 15 15 15 15 15 15 14 14 14 14 14 14 14 13 13 13 13 13 13 13 12 12 12 12 12 12 12 11 11
15 15 15 15 15 15 15 15 15 15 15 14 14 14 14 14 14 13 13 13 13 13 13 12 12 12 12 12 12 12 12 12 11 11 11 11 11 11
15 15 15 15 15 15 14 14 14 15 14 14 14 14 14 13 13 13 13 12 12 12 12 12 12 11 11 12 11 11 11 11 11 11 11 11 10 10
15 15 15 15 14 14 14 14 14 14 14 14 13 13 13 13 13 13 12 12 12 12 11 11 11 11 10 10 11 11 11 10 10 10 10 10 10 10
15 15 14 14 14 14 14 14 14 13 13 13 13 13 13 13 12 12 12 11 11 11 11 11 10 10 10 10 10 10 10 10 10 10 10 10 9 9
14 14 14 14 14 14 13 13 13 13 13 13 12 12 12 12 12 12 11 11 11 11 10 10 10 10 9 9 9 9 9 9 9 9 9 9 9 9
14 13 13 13 13 13 13 13 13 12 12 12 12 12 12 11 11 11 11 11 10 10 10 10 10 9 9 9 9 9 9 9 9 9 8 9 9 9
13 13 13 12 12 12 12 12 12 12 12 11 11 11 11 11 10 10 10 10 10 10 10 9 9 9 9 9 9 9 8 8 8 8 8 8 8 8
13 12 12 12 12 11 11 11 11 11 11 11 11 10 10 10 10 10 9 9 9 9 9 9 8 8 9 9 9 8 8 8 8 8 8 7 8 8
12 12 11 11 11 11 11 11 11 10 10 10 10 10 9 9 9 9 9 9 8 8 8 8 8 7 7 7 8 8 7 7 7 7 7 7 7 8
11 11 11 11 10 10 10 10 10 10 10 9 9 9 9 9 8 8 8 8 8 8 8 8 7 7 7 6 7 7 7 7 7 7 7 7 7 8
11 10 10 10 10 10 10 9 9 9 9 9 8 8 8 8 8 8 8 7 7 7 7 7 7 7 6 6 6 7 7 7 6 6 6 6 7 7
10 10 9 9 9 9 9 9 8 8 8 8 8 7 7 7 7 7 7 7 6 6 6 6 6 6 6 6 6 6 6 7 7 7 6 6 6 6
9 9 8 8 8 8 8 8 8 7 7 7 7 7 7 6 6 6 6 6 6 6 6 6 6 6 5 5 5 5 6 6 6 6 7 7 6 6
Wind_Speed
5 5 3 2 2 3 3 4 5 3 3 3 2 3 7 10 13 14 14 16 16 17 17 16 16 16 16 15 15 15 14 14 14 14 14 13 13 13
4 5 3 2 2 2 3 3 4 5 4 4 4 3 4 7 12 14 15 15 16 18 18 19 19 19 19 18 18 17 17 17 16 16 16 16 16 15
5 5 5 3 3 2 2 2 3 4 4 3 2 2 2 3 4 10 12 13 14 17 19 20 21 21 21 21 20 20 19 19 19 18 18 18 18 17
6 5 5 4 3 2 2 3 3 3 4 3 2 2 3 4 4 4 7 10 12 14 17 18 19 20 21 21 21 21 21 21 21 20 20 20 19 19
7 7 6 6 4 3 3 3 2 2 3 3 3 2 2 2 2 3 4 4 8 11 12 14 16 18 19 20 21 22 22 22 22 22 22 22 21 21
7 7 7 7 7 6 4 4 3 2 2 2 2 2 2 2 1 2 3 3 4 5 7 8 10 12 14 16 18 19 21 22 22 22 22 22 22 22
6 7 8 9 10 8 6 6 5 3 3 2 2 1 2 1 2 2 3 3 4 3 3 4 5 6 10 12 14 16 18 19 19 20 20 21 21 22
7 6 7 8 10 11 11 10 9 7 6 4 4 4 4 4 3 3 2 2 4 3 1 4 2 4 6 10 12 14 14 15 16 17 18 19 20 20
8 7 6 7 8 6 8 9 9 10 10 7 7 7 6 6 4 3 4 4 5 4 1 4 3 5 7 10 12 13 13 14 15 16 18 18 19 19
8 8 8 6 7 8 7 6 6 7 8 7 7 8 7 6 6 5 5 4 4 4 3 4 4 4 5 9 12 12 13 14 16 16 17 17 18 18
7 7 8 7 9 11 7 6 6 6 8 11 11 10 11 10 7 3 2 2 4 4 3 3 4 4 4 5 10 12 12 14 15 16 16 17 17 17
5 6 9 9 10 11 8 7 7 7 4 3 4 5 6 6 8 7 6 4 4 4 3 3 3 2 4 4 4 8 10 13 15 16 17 17 17 11
6 5 5 9 10 11 10 7 10 7 4 4 3 3 2 2 3 4 5 5 5 6 4 3 3 3 3 4 4 4 5 6 9 11 15 16 17 11
6 5 4 6 7 7 7 7 8 6 3 3 2 3 3 4 4 4 5 7 8 8 7 4 4 4 4 4 5 5 5 6 6 6 8 13 15 16
5 7 6 6 4 4 5 6 5 3 3 3 4 5 4 4 3 3 3 4 6 8 8 6 5 5 4 5 5 5 5 5 5 5 6 6 7 7
3 4 5 5 3 2 1 2 2 3 3 4 3 3 2 2 2 2 2 2 3 4 5 6 5 5 4 6 6 7 6 5 5 7 7 7 7 8
4 2 2 2 2 1 1 0 1 1 2 2 3 2 2 2 3 2 2 2 2 4 5 5 5 6 7 6 6 7 7 6 7 7 6 7 8 7
6 3 2 2 2 1 1 1 1 1 2 2 2 3 3 3 4 3 2 2 4 5 5 5 4 4 4 5 8 7 6 6 7 7 5 7 9 8
5 3 3 3 2 2 2 2 2 3 2 2 3 3 3 3 3 3 3 3 4 5 5 4 3 2 5 7 6 6 6 7 6 7 6 7 9 10
2 2 2 2 2 1 1 1 1 1 1 1 2 2 3 3 3 4 3 4 4 4 5 4 4 4 5 6 6 6 9 7 6 8 8 8 8 10
2 2 2 1 1 1 1 1 0 0 1 1 1 2 2 2 3 3 3 5 4 4 5 6 6 7 5 3 5 6 6 9 9 8 8 8 8 7
2 2 2 2 2 2 1 1 1 1 1 1 2 2 2 2 2 3 3 4 4 5 6 6 6 4 2 4 7 8 9 9 10 13 12 10 6 5
3 3 3 3 2 2 2 2 2 1 1 2 2 2 2 2 3 3 4 4 4 5 5 5 4 4 4 5 7 8 10 10 8 8 8 10 13 15
Wind_Direction
173 171 170 186 172 167 162 156 153 176 241 260 255 236 212 207 211 209 217 224 230 235 240 244 248 251 254 255 256 257 259 260 261 263 264 266 267 270
176 171 178 187 169 153 155 158 154 159 202 242 239 240 209 209 215 211 221 230 235 239 244 248 251 253 255 256 257 258 260 261 261 262 263 264 265 266
182 177 188 175 161 159 149 149 153 149 178 249 251 243 197 211 207 221 233 238 244 247 249 253 256 256 256 257 258 260 261 262 263 263 263 264 265 265
191 180 191 180 169 166 157 164 171 170 164 198 243 238 223 221 217 224 235 240 246 254 256 257 259 260 260 260 261 262 264 264 265 265 265 265 265 265
189 186 191 179 186 189 180 178 182 171 157 170 221 247 256 247 234 253 254 258 261 262 261 262 264 265 266 266 266 267 268 269 268 267 267 266 265 264
194 192 193 188 191 192 190 192 185 171 162 170 213 249 261 270 204 243 272 268 270 276 275 274 276 276 274 273 273 273 273 272 272 271 270 268 267 265
200 201 201 197 196 194 194 194 186 185 184 189 215 233 254 256 237 230 242 275 281 261 278 285 285 289 291 290 285 281 279 278 276 275 273 271 270 268
202 207 209 204 205 205 202 193 185 187 194 195 206 215 233 227 224 219 223 263 285 271 245 277 264 276 283 286 285 286 287 285 283 281 277 275 273 272
202 202 213 212 202 200 208 210 210 209 197 191 206 220 221 216 206 224 224 223 238 247 224 276 276 274 278 283 288 292 294 295 293 290 286 283 279 276
204 200 202 212 207 199 204 213 226 230 221 211 214 222 221 215 203 211 220 236 259 258 198 252 271 268 279 284 288 291 295 300 301 299 296 291 286 282
209 203 200 209 218 205 197 211 231 246 244 230 228 234 238 236 215 188 218 233 272 274 212 219 262 277 281 277 281 284 289 297 299 299 297 295 292 290
213 213 211 211 217 208 201 204 224 240 237 240 241 253 251 251 230 208 210 218 241 267 241 210 250 271 294 280 279 285 292 297 299 298 296 295 296 291
211 217 220 216 217 214 206 210 223 218 209 214 228 248 257 253 241 221 210 209 223 244 238 201 232 230 236 278 289 277 277 281 291 293 294 294 293 284
210 209 205 199 205 208 208 214 217 206 194 202 226 244 249 253 251 244 237 233 234 242 251 222 225 232 242 265 277 281 278 274 275 278 285 291 292 287
195 187 183 184 186 203 215 216 207 194 194 212 233 244 243 246 250 258 268 262 263 262 264 242 228 243 229 245 261 268 284 283 273 273 278 278 278 280
183 176 170 164 155 168 194 215 207 201 203 220 235 249 255 258 258 250 267 289 292 292 287 274 251 237 248 252 255 270 270 271 282 282 280 280 276 272
149 110 95 101 111 105 89 123 178 183 216 235 239 253 263 267 265 254 243 243 253 277 291 294 282 264 243 246 263 267 271 274 274 279 282 286 281 275
132 133 158 170 179 187 194 216 214 222 235 237 242 246 253 257 267 275 258 251 261 267 272 279 294 311 314 280 238 255 271 276 281 280 272 283 290 284
134 160 175 186 197 200 204 210 230 240 233 230 242 252 258 262 264 271 273 270 269 270 272 271 272 272 295 298 281 243 260 285 290 292 283 276 285 289
149 166 179 186 188 190 202 209 237 280 273 259 256 260 260 262 271 275 272 265 272 279 287 284 268 255 255 272 277 281 271 264 280 291 293 290 283 281
146 144 144 135 120 114 112 109 95 322 318 319 306 294 288 280 280 282 282 288 285 283 284 280 271 271 270 275 287 288 280 270 268 275 288 296 298 297
105 105 99 96 90 86 84 79 64 33 7 351 329 325 320 309 292 292 289 286 280 276 277 281 287 290 275 276 287 292 296 300 296 288 274 263 270 282
89 87 79 79 75 72 70 69 67 35 7 346 333 323 319 311 301 294 292 286 286 288 291 294 297 288 277 275 284 293 295 300 304 308 301 289 279 273
Height
1554 1556 1557 1559 1560 1561 1562 1563 1564 1564 1565 1566 1567 1567 1568 1568 1569 1569 1569 1569 1568 1568 1567 1567 1566 1565 1564 1564 1563 1562 1561 1560 1559 1558 1557 1556 1555 1555
1551 1553 1555 1556 1558 1559 1560 1561 1562 1563 1563 1564 1564 1565 1566 1566 1567 1567 1567 1566 1566 1565 1565 1564 1564 1563 1562 1561 1560 1559 1558 1557 1556 1555 1554 1553 1551 1550
1548 1550 1552 1553 1555 1556 1557 1558 1559 1560 1561 1561 1562 1563 1563 1564 1564 1564 1564 1564 1563 1563 1562 1561 1561 1560 1559 1558 1557 1556 1555 1553 1552 1551 1550 1549 1547 1546
1545 1547 1549 1550 1552 1554 1555 1556 1557 1557 1558 1559 1560 1560 1561 1561 1561 1561 1561 1561 1560 1560 1559 1558 1557 1556 1555 1554 1553 1552 1551 1549 1548 1547 1546 1544 1543 1541
1542 1544 1546 1548 1549 1551 1552 1553 1554 1555 1555 1556 1557 1557 1558 1558 1558 1558 1558 1558 1557 1556 1555 1554 1553 1552 1551 1550 1549 1548 1546 1545 1543 1542 1540 1539 1537 1536
1539 1541 1543 1544 1546 1547 1549 1550 1551 1552 1552 1553 1553 1554 1555 1555 1555 1554 1554 1554 1553 1552 1551 1550 1549 1548 1547 1546 1544 1543 1541 1539 1538 1536 1535 1533 1531 1530
1536 1537 1539 1541 1543 1544 1545 1547 1548 1548 1549 1549 1550 1550 1551 1551 1551 1550 1550 1549 1548 1548 1547 1546 1544 1543 1542 1540 1539 1537 1535 1534 1532 1530 1528 1527 1525 1524
1532 1534 1536 1538 1539 1541 1542 1543 1544 1544 1545 1545 1546 1546 1546 1547 1547 1546 1545 1544 1543 1543 1541 1540 1539 1537 1536 1535 1533 1531 1529 1528 1526 1524 1522 1520 1519 1517
1529 1531 1533 1534 1536 1537 1538 1539 1539 1540 1541 1541 1541 1541 1541 1542 1542 1541 1541 1539 1538 1537 1536 1533 1533 1531 1530 1528 1527 1525 1523 1521 1519 1517 1515 1514 1512 1510
1525 1527 1529 1530 1531 1533 1534 1534 1535 1535 1536 1536 1536 1536 1537 1537 1537 1536 1535 1534 1533 1532 1531 1528 1526 1525 1524 1522 1521 1519 1517 1515 1513 1511 1509 1507 1505 1502
1521 1523 1524 1526 1527 1528 1529 1529 1530 1530 1531 1531 1531 1531 1531 1531 1531 1531 1530 1528 1526 1526 1525 1523 1520 1518 1517 1516 1514 1513 1511 1509 1507 1504 1502 1499 1497 1494
1517 1518 1519 1521 1522 1523 1524 1524 1524 1525 1526 1526 1526 1526 1526 1526 1526 1525 1524 1523 1521 1519 1518 1517 1515 1513 1510 1509 1508 1506 1504 1502 1500 1497 1495 1492 1489 1486
1511 1513 1514 1515 1517 1518 1518 1519 1519 1520 1520 1520 1520 1520 1520 1520 1520 1519 1518 1517 1515 1513 1513 1512 1509 1508 1506 1503 1501 1500 1498 1495 1492 1490 1487 1484 1482 1479
1505 1507 1508 1510 1511 1513 1513 1513 1514 1514 1515 1515 1515 1514 1514 1514 1513 1512 1512 1511 1510 1509 1508 1506 1504 1502 1499 1496 1494 1492 1490 1488 1485 1482 1479 1477 1474 1471
1500 1501 1503 1504 1505 1506 1507 1508 1509 1509 1509 1509 1508 1508 1508 1508 1507 1506 1506 1505 1504 1503 1501 1500 1498 1496 1494 1491 1488 1485 1483 1480 1478 1475 1472 1469 1466 1463
1495 1497 1498 1499 1500 1501 1502 1502 1503 1503 1503 1503 1502 1502 1502 1502 1501 1500 1500 1499 1498 1497 1496 1494 1492 1490 1487 1485 1483 1479 1477 1473 1470 1468 1464 1461 1458 1455
1491 1492 1493 1494 1494 1495 1496 1497 1497 1498 1498 1498 1498 1497 1496 1496 1496 1495 1494 1493 1492 1490 1489 1488 1486 1484 1482 1479 1476 1473 1470 1466 1464 1460 1456 1452 1450 1447
1487 1488 1489 1490 1491 1491 1492 1493 1493 1494 1494 1494 1493 1492 1492 1491 1491 1490 1489 1488 1486 1484 1483 1481 1479 1477 1475 1472 1471 1467 1463 1460 1456 1453 1450 1445 1440 1439
1484 1485 1486 1487 1488 1488 1489 1489 1490 1490 1490 1489 1489 1488 1487 1486 1486 1484 1483 1482 1481 1479 1477 1476 1474 1471 1468 1464 1462 1462 1458 1453 1450 1446 1442 1439 1434 1430
1481 1482 1483 1484 1485 1485 1486 1486 1486 1486 1485 1485 1484 1483 1482 1481 1480 1479 1478 1477 1475 1474 1472 1470 1468 1466 1463 1460 1456 1453 1452 1448 1444 1439 1435 1432 1428 1425
1479 1480 1481 1482 1482 1482 1482 1482 1482 1482 1482 1481 1480 1478 1477 1476 1475 1474 1473 1471 1470 1468 1466 1464 1462 1460 1457 1454 1450 1446 1445 1443 1439 1434 1430 1425 1421 1417
1477 1478 1479 1479 1480 1480 1480 1480 1479 1479 1478 1477 1475 1474 1473 1472 1471 1469 1468 1466 1464 1463 1460 1458 1456 1454 1451 1448 1444 1440 1437 1435 1433 1429 1426 1422 1417 1412
1477 1477 1477 1478 1478 1478 1478 1477 1476 1475 1474 1473 1472 1470 1469 1467 1466 1464 1463 1461 1459 1457 1455 1453 1451 1448 1446 1443 1439 1435 1432 1428 1425 1422 1419 1416 1413 1410